Weather History for KGCK - January, 2014

Change the Weather History Date:

Monday, January 13, 2014

  Actual Average Record
Temperature  
Mean Temperature 40 °F 31 °F  
Max Temperature 55 °F 44 °F 70 °F (1996)
Min Temperature 24 °F 18 °F -11 °F (1963)
Degree Days  
Heating Degree Days 25 34  
Month to date heating degree days 477 442  
Since 1 July heating degree days 2598 2565  
Cooling Degree Days 0 0  
Month to date cooling degree days 0 0  
Year to date cooling degree days 0 0  
Moisture  
Dew Point 15 °F    
Average Humidity 42    
Maximum Humidity 68    
Minimum Humidity 16    
Precipitation  
Precipitation 0.00 in 0.01 in 0.42 in (1951)
Month to date precipitation 0.01 0.13  
Year to date precipitation 0.01 0.13  
Sea Level Pressure  
Sea Level Pressure 29.97 in    
Wind  
Wind Speed 12 mph (WNW)    
Max Wind Speed 22 mph    
Max Gust Speed 28 mph    
Visibility 10 miles    
Events      
T = Trace of Precipitation, MM = Missing Value Source: NWS Daily Summary

Daily Weather History Graph

Daily Weather History Graph

Search for Another Location

Airport or City:

Trip Planner

Search our weather history database for the weather conditions in past years. The results will help you decide how hot, cold, wet, or windy it might be!

Date:

Astronomy

Jan. 13, 2014 Rise Set
Actual Time 7:58 AM CST 5:45 PM CST
Civil Twilight 7:29 AM CST 6:14 PM CST
Nautical Twilight 6:56 AM CST 6:46 PM CST
Astronomical Twilight 6:25 AM CST 7:18 PM CST
Moon 4:01 PM CST (1/13) 5:48 AM CST (1/13)
Length of Visible Light 10h 45m
Length of Day
9h 47m
Waxing Gibbous, 95% of the Moon is Illuminated
Jan 13
Waxing Gibbous
Jan 15
Full
Jan 23
Last Quarter
Jan 30
New
Feb 6
First Quarter

Hourly Weather History & Observations

Time (CST) Temp. Windchill Dew Point Humidity Pressure Visibility Wind Dir Wind Speed Gust Speed Precip Events Conditions
12:54 AM 34.0 °F 23.8 °F 15.1 °F 46% 29.91 in 10.0 mi NW 16.1 mph - N/A   Clear
1:54 AM 32.0 °F 21.6 °F 16.0 °F 52% 29.91 in 10.0 mi NW 15.0 mph - N/A   Clear
2:54 AM 32.0 °F 22.1 °F 17.1 °F 54% 29.94 in 10.0 mi NW 13.8 mph - N/A   Clear
3:54 AM 30.9 °F 21.2 °F 17.1 °F 57% 29.97 in 10.0 mi NW 12.7 mph - N/A   Clear
4:54 AM 30.9 °F 19.8 °F 16.0 °F 54% 29.98 in 10.0 mi NW 16.1 mph - N/A   Clear
5:54 AM 30.0 °F 20.0 °F 15.1 °F 54% 29.99 in 10.0 mi NW 12.7 mph - N/A   Clear
6:54 AM 26.1 °F 15.6 °F 16.0 °F 66% 30.03 in 10.0 mi West 11.5 mph - N/A   Clear
7:54 AM 25.0 °F 15.5 °F 15.1 °F 66% 30.04 in 10.0 mi WNW 9.2 mph - N/A   Clear
8:54 AM 26.1 °F 16.8 °F 15.1 °F 63% 30.06 in 10.0 mi WNW 9.2 mph - N/A   Clear
9:54 AM 34.0 °F 26.0 °F 15.1 °F 46% 30.06 in 10.0 mi WNW 10.4 mph - N/A   Clear
10:54 AM 39.9 °F 33.4 °F 15.1 °F 36% 30.06 in 10.0 mi West 10.4 mph - N/A   Clear
11:54 AM 44.1 °F 37.4 °F 12.0 °F 27% 30.03 in 10.0 mi WSW 13.8 mph - N/A   Clear
12:54 PM 50.0 °F - 9.0 °F 19% 29.97 in 10.0 mi WSW 16.1 mph - N/A   Clear
1:54 PM 53.1 °F - 8.1 °F 16% 29.93 in 10.0 mi West 20.7 mph 27.6 mph N/A   Mostly Cloudy
2:54 PM 54.0 °F - 10.9 °F 18% 29.91 in 10.0 mi WNW 18.4 mph 25.3 mph N/A   Clear
3:54 PM 55.0 °F - 12.0 °F 18% 29.92 in 10.0 mi NW 12.7 mph - N/A   Clear
4:54 PM 53.1 °F - 12.0 °F 20% 29.92 in 10.0 mi WNW 10.4 mph - N/A   Clear
5:54 PM 45.0 °F 41.2 °F 12.9 °F 27% 29.94 in 10.0 mi West 6.9 mph - N/A   Clear
6:54 PM 41.0 °F 35.2 °F 16.0 °F 36% 29.96 in 10.0 mi West 9.2 mph - N/A   Clear
7:54 PM 39.0 °F 32.8 °F 15.1 °F 38% 29.97 in 10.0 mi West 9.2 mph - N/A   Clear
8:54 PM 36.0 °F 30.3 °F 17.1 °F 46% 29.97 in 10.0 mi West 6.9 mph - N/A   Clear
9:54 PM 37.9 °F 31.5 °F 17.1 °F 43% 29.96 in 10.0 mi West 9.2 mph - N/A   Overcast
10:54 PM 37.9 °F 32.7 °F 17.1 °F 43% 29.95 in 10.0 mi West 6.9 mph - N/A   Overcast
11:54 PM 36.0 °F 29.0 °F 18.0 °F 48% 29.95 in 10.0 mi WNW 9.2 mph - N/A   Overcast